GFSNIL_sfc_wetblb_336.txt.gz
Wetbulb
36.30 49.89 50.47 48.85 45.48 42.73 41.41 40.54 40.43 40.06 39.93 40.57 42.80 42.27 41.48 40.09 37.95 38.14 36.69 36.32 36.07 36.23
32.92 37.07 46.32 46.61 45.56 43.83 41.20 40.27 40.85 41.66 40.73 39.46 41.58 42.01 40.91 40.03 36.83 36.45 34.41 34.02 34.21 34.46
30.86 33.15 38.51 43.93 43.81 41.75 40.82 39.35 40.02 39.87 40.09 38.30 39.69 41.78 40.53 39.14 38.12 37.03 34.54 33.98 33.33 32.81
29.32 31.20 33.55 37.05 41.56 41.57 40.17 40.29 38.65 38.59 37.54 37.57 36.85 36.07 37.27 37.32 37.16 36.21 34.50 34.57 33.04 31.30
27.29 30.06 30.92 32.24 35.76 39.30 39.21 38.54 38.46 37.91 37.30 36.55 36.30 36.19 35.70 34.99 34.55 33.73 32.71 32.66 32.19 32.40
22.43 26.80 29.63 31.01 32.14 35.56 38.36 37.87 37.84 36.68 36.07 35.44 34.95 34.81 34.66 34.05 33.36 32.95 32.53 32.44 32.08 32.10
19.55 23.24 27.56 30.79 31.72 32.02 32.70 34.49 35.90 35.35 35.24 35.01 34.62 33.79 33.47 33.07 32.59 32.01 31.92 32.10 32.51 33.43
18.67 21.59 24.97 28.18 31.05 31.72 31.97 31.98 32.08 32.07 32.88 33.29 33.33 33.32 32.60 32.21 31.73 31.52 31.94 33.42 34.48 35.36
17.14 19.52 21.65 24.62 28.61 31.05 31.49 31.68 31.85 31.85 32.09 32.37 33.09 36.01 35.86 34.00 32.16 32.40 32.38 32.41 33.94 36.29
15.41 17.61 19.20 22.74 24.67 27.97 29.89 31.49 31.44 31.63 31.85 31.86 34.69 37.59 37.41 36.90 33.74 33.04 32.62 32.19 32.10 32.99
13.84 16.47 17.97 20.29 21.95 24.33 28.13 28.97 31.26 31.45 31.78 31.82 34.12 38.11 37.91 36.63 32.17 31.81 31.78 31.75 32.00 32.11
12.67 15.27 16.35 17.27 20.16 22.47 25.70 26.78 27.95 29.62 31.77 31.82 33.43 37.24 36.57 33.21 31.15 30.59 30.75 31.83 32.56 32.70
12.00 14.46 15.09 16.85 18.54 21.34 24.45 25.85 27.20 27.54 28.66 34.44 32.00 36.35 35.99 32.71 30.81 29.57 30.37 31.38 32.96 35.39
10.42 13.57 15.24 17.11 18.38 19.58 22.05 24.56 25.72 25.88 26.79 28.12 32.60 33.61 35.93 34.38 30.29 29.69 29.69 30.53 31.34 33.17

GFSNIL_sfc_wetblb_339.txt.gz
Wetbulb
30.80 32.65 35.83 48.41 47.73 45.25 42.87 41.53 41.68 44.87 46.83 47.59 48.24 47.90 48.34 47.23 43.83 41.35 38.01 37.74 37.75 36.49
26.66 30.66 32.34 35.80 48.50 46.66 44.83 41.97 39.86 41.14 42.41 44.49 45.53 44.87 44.36 43.34 40.95 39.74 34.82 33.95 34.39 34.85
24.00 27.64 31.86 35.00 43.93 44.43 42.65 40.46 40.73 40.53 41.83 43.55 44.17 43.17 42.97 38.51 37.25 36.67 33.56 33.13 33.32 32.85
21.91 24.66 29.55 31.77 35.27 42.30 40.18 40.78 40.89 41.16 41.81 42.64 42.42 42.53 40.96 38.43 36.74 35.77 33.69 32.61 33.33 31.95
20.92 23.03 24.98 29.62 32.56 38.39 39.98 39.80 39.68 39.76 40.22 41.63 41.35 40.94 40.29 38.07 36.69 34.67 33.03 33.33 32.32 32.54
18.03 20.71 22.61 25.85 31.46 33.31 38.57 38.32 38.05 37.33 36.63 37.30 38.63 38.41 38.56 38.43 37.31 36.24 34.79 33.28 32.30 32.25
15.43 19.17 21.58 24.64 28.74 31.77 32.84 37.01 36.84 36.48 35.57 35.03 35.00 34.62 35.20 35.43 34.33 33.76 33.65 33.36 33.32 33.43
14.89 18.18 20.61 23.20 25.21 30.77 31.87 32.10 33.98 34.86 34.83 34.42 33.91 33.71 33.37 33.10 33.10 31.50 31.81 32.85 33.38 34.52
13.27 15.81 18.31 21.06 23.74 26.87 30.38 31.77 31.95 32.28 32.76 32.63 33.78 36.88 36.33 34.00 32.24 32.53 32.64 32.93 34.60 36.83
11.80 13.46 16.61 19.33 22.21 23.94 27.19 30.80 31.53 31.68 31.80 31.83 33.52 38.17 37.46 35.97 33.00 32.76 33.02 33.89 34.88 35.79
10.03 11.58 15.66 17.62 19.35 22.51 25.87 27.58 28.91 31.62 31.80 31.85 32.95 37.65 37.41 36.30 32.05 31.97 32.20 32.90 33.60 34.23
8.97 10.04 14.05 15.52 17.54 20.33 24.45 26.16 27.16 29.32 31.78 31.79 32.95 37.21 36.95 33.89 31.84 31.74 31.69 31.86 32.18 32.67
8.74 9.72 12.78 14.93 17.09 19.46 22.95 25.64 26.86 27.36 30.25 34.49 31.84 36.31 36.25 33.00 31.31 30.32 30.83 31.69 32.55 36.23
8.26 10.84 12.75 14.47 17.07 18.62 20.56 23.84 25.14 25.59 26.91 28.05 32.32 33.13 35.71 34.56 31.07 30.36 30.43 31.23 31.42 33.01

GFSNIL_sfc_wetblb_342.txt.gz
Wetbulb
23.70 25.29 28.53 32.44 34.72 42.35 43.86 45.85 48.77 50.41 51.48 51.38 50.26 49.82 49.74 49.79 49.18 47.48 43.67 40.59 39.84 40.45
20.91 23.38 25.53 29.04 33.64 37.81 45.83 42.92 45.30 48.93 50.26 50.26 49.99 49.85 49.73 49.35 46.54 42.16 40.72 39.12 38.17 38.10
18.21 21.48 24.72 27.67 31.28 34.51 44.28 42.04 41.97 45.89 48.31 48.11 48.42 48.92 49.30 47.22 44.73 42.14 39.02 37.19 36.92 36.06
16.35 18.28 22.74 25.14 28.09 32.48 36.32 41.01 40.50 42.44 44.77 46.50 46.98 47.05 47.31 45.15 43.00 42.61 37.80 35.76 36.13 34.58
15.10 16.43 18.84 22.19 26.16 31.02 33.81 40.94 40.75 40.92 42.68 44.75 45.73 45.28 45.97 41.77 41.17 40.33 36.60 34.37 33.09 32.54
12.24 14.22 16.27 19.79 24.26 28.25 32.65 38.14 40.61 39.57 39.72 42.13 43.06 42.95 42.99 40.41 38.73 38.15 35.57 33.21 32.84 32.06
10.27 12.96 16.04 18.73 21.98 25.93 31.31 33.21 37.82 39.29 37.76 37.76 38.50 38.80 38.65 38.71 36.95 35.68 33.71 33.02 32.58 32.31
9.65 12.24 15.38 17.71 19.74 24.52 28.86 31.97 33.21 35.00 35.85 35.41 35.38 35.63 34.38 34.38 33.68 32.39 31.36 32.19 32.13 32.90
8.84 10.74 13.15 16.25 18.73 21.88 26.32 29.96 31.90 32.26 33.12 33.61 34.58 38.29 38.49 35.41 32.32 32.23 32.57 31.75 32.90 35.07
7.91 9.35 11.41 15.33 17.88 19.57 22.51 27.60 30.73 31.68 31.88 32.45 34.97 39.00 38.34 36.74 32.81 32.48 32.72 32.36 33.97 34.16
7.01 8.11 11.17 13.90 15.92 18.63 20.75 25.90 27.44 31.20 31.76 31.83 33.81 39.12 37.94 36.20 32.94 32.49 33.50 34.46 35.13 35.64
6.72 7.62 11.04 11.73 14.21 17.93 19.92 24.53 26.76 30.77 31.77 31.81 32.34 38.23 38.09 34.12 32.24 32.43 32.36 33.25 35.00 35.77
6.85 7.67 10.11 11.12 13.80 17.81 20.52 22.95 26.00 27.43 28.94 34.53 31.82 36.48 37.41 34.11 31.97 31.69 31.80 32.23 33.52 36.71
6.54 8.58 10.22 10.97 13.94 17.27 19.74 21.53 23.30 25.18 26.62 27.68 32.71 33.41 36.04 35.24 31.86 31.71 31.55 31.59 31.46 33.32

GFSNIL_sfc_wetblb_345.txt.gz
Wetbulb
18.37 19.65 21.75 24.97 27.58 32.10 36.83 42.87 48.92 51.78 52.80 52.16 51.19 50.95 50.87 50.35 49.74 48.31 45.56 45.30 45.28 44.66
16.57 17.85 19.07 21.64 26.61 30.08 33.75 38.11 45.51 49.61 51.61 51.45 50.77 50.28 49.87 49.65 48.05 46.53 43.62 43.09 44.32 43.50
15.03 16.88 18.43 20.60 23.17 26.85 30.53 35.06 42.42 47.29 49.99 50.59 50.02 49.83 49.52 49.47 46.06 45.80 43.63 42.30 41.28 38.89
12.92 14.86 16.60 18.49 21.16 23.87 28.15 33.65 39.53 44.79 48.03 49.13 49.20 49.35 49.17 49.11 44.79 43.53 41.16 40.55 40.11 37.58
11.95 13.21 13.83 15.44 19.38 22.36 26.16 31.80 37.60 42.13 45.98 46.90 47.73 48.48 48.77 46.97 45.05 44.72 41.96 40.34 38.53 36.24
9.90 10.79 11.93 14.03 17.95 21.13 24.25 29.33 35.26 40.48 41.91 44.88 45.92 46.38 47.44 46.10 44.82 44.75 43.50 40.59 38.74 35.94
8.31 9.58 11.09 13.53 16.69 19.48 22.66 27.63 32.91 37.63 39.43 41.28 43.80 44.18 45.24 44.40 43.60 44.15 43.38 40.03 38.65 36.52
8.08 9.29 11.08 12.54 15.52 18.51 20.98 24.38 31.13 33.49 37.12 37.35 39.39 41.51 40.60 40.41 40.39 38.13 36.24 36.17 35.52 35.60
7.08 8.68 10.48 12.17 14.18 16.89 19.49 21.29 27.39 31.99 32.62 33.04 36.08 40.08 41.96 38.89 36.32 35.48 34.74 33.27 33.05 34.44
6.07 7.10 9.20 11.84 13.21 15.03 18.26 21.02 25.20 29.75 31.95 32.31 34.32 40.45 41.18 39.15 33.82 33.63 33.15 32.74 33.20 33.60
5.20 6.22 8.39 10.90 11.46 13.94 18.00 20.91 23.97 28.50 31.72 31.94 33.69 39.68 40.78 37.99 33.34 32.70 32.37 32.84 33.27 33.32
5.08 5.97 8.00 9.56 10.49 13.97 17.52 21.00 23.19 27.69 31.32 31.71 32.10 38.77 38.71 35.00 33.92 32.70 32.80 33.71 34.07 35.12
5.17 5.55 7.96 9.16 10.84 14.49 18.05 21.93 23.54 26.03 27.50 33.80 31.78 37.28 37.50 34.07 31.89 31.78 31.99 33.91 35.50 38.15
4.62 5.56 8.89 8.91 11.89 15.12 18.25 21.94 22.10 23.16 25.83 26.86 31.49 33.01 36.19 35.37 31.89 32.06 31.80 32.53 34.29 36.42